Showing default

AZERSPACE 2/INTELSAT 38, 43632

Orbit data source: Space-Track

AZERSPACE 2/INTELSAT 38, 43632 is a payload satellite owned by Azerkosmos (AZ) in GEO that was launched on Tue, 25 Sep 2018 UTC via an ARIANE 5ECA launch vehicle from the French Guiana (FRGUI). Payload-class satellites include a variety of spacecraft equipped with specific instruments for various scientific and technological missions. These include communications satellites like Starlink; space stations such as the ISS; scientific satellites like the Hubble; Earth observation satellites from companies like Planet Labs, Umbra, and HawkEye 360; GPS; miniature CubeSats for education and research; and military/defense satellites.

Not visible in the next 10 days
Identifier
43632, 2018-074A
Orbit
GEO
Country
Flag of AZAZ / AZER
Related business
Manufacturer
Maxar SSL
Mission
Operational Civil Communications
Bus & Motor
SSL-1300, R-4D
Mass
3,500 kg wet, ~2,000 kg dry
Launch date (UTC)
2018-09-25 (8 years ago)
Launch vehicle
ARIANE 5ECA
Launch site
French Guiana (FRGUI)
Object type
Payload
Rocket body
Debris
Shape & HBR
Box + 2 Pan, 13.5 m
Radar Cross Section
36.085 m², Large (>1 m²)

Expand to show TLE details & history
Last TLE update: 2 days ago

TLE from 2 days ago
0 AZERSPACE 2/INTELSAT 38
1 43632U 18074A   26171.18709704  .00000132  00000-0  00000-0 0  9997
2 43632   0.0176  12.5072 0001411  75.0400 293.3134  1.00271425 28472
Epoch: 2026-06-20T04:29Z
TLE epoch observation values (Epoch: 2026-06-20T04:29:25.184Z)
Latitude
0.00798°
Longitude
45.09788°
Altitude
35,783.822 km
Speed
3.075 km/s
True Right ascension
01h 23m 25s
True Declination
0° 00' 29"
Sunlit
Object was in daylight at epoch
Visualization orbit readout
Latitude
Unknown
Longitude
Unknown
Altitude
Unknown
Speed
Unknown
Apparent Right ascension
Unknown
Apparent Declination
Unknown
Sunlit
N/A
Visualization observer readout
Local Sidereal Time
02:13:09
Azimuth
Unknown
Elevation
Unknown
Doppler factor
Unknown
Orbital elements
Apogee altitude
35,793.716 km
Perigee altitude
35,781.817 km
Semi-major axis
42,165.903 km
Eccentricity
0.00014
Inclination
0.0176°
RAAN
12.5072°
Arg. of periapsis
75.04°
True anomaly
293.29855°
Mean anomaly
293.3134°
Eccentric anomaly
293.30598°
Mean motion
0.25067 °/min
Orbital period
1,436.16 mins
BSTAR
0
Loading maneuver chart data...
Computing Atmospheric mass density...
Loading historical data...
Loading historical data...
Loading historical data...
Loading historical data...
Loading historical data...
Loading historical data...
Loading historical data...
Other satellites on launch #74 in the year 2018 (2018-09-25 UTC)

Documentation

Showing up to 5 results
|